Home > Weather > Taiohae > Past weeks

Flag for French Polynesia Weather for the Past 2 Weeks in Taiohae, Marquesas Islands, French Polynesia

Now
85 °F

Overcast.


Feels Like: 92 °F
Forecast: 83 / 87 °F
Wind: 2 mph from East

Location: Atuona

Current Time: Feb 13, 2016 at 8:19:02 AM

Latest Report: Feb 13, 2016 at 7:30 AM


Visibility: 19 mi

Pressure: 29.81 "Hg

Humidity: 70%

Dew point: 74 °F

Location of TaiohaeLocation

Historic Weather in Taiohae — Graph

°F

Taiohae Temperature Yesterday

Maximum temperature yesterday: 87 °F (at 9:30 AM)
Minimum temperature yesterday: 77 °F (at 12:30 AM)
Average temperature yesterday: 82 °F

High & Low Weather Summary for the Past Weeks

 TemperatureHumidityPressure
High90 °F (Jan 31, 9:30 AM)91% (Jan 30, 6:30 AM)29.93 "Hg (Jan 30, 6:30 AM)
Low75 °F (Jan 31, 3:30 AM)59% (Jan 31, 4:30 PM)29.69 "Hg (Feb 12, 2:30 PM)
Average82 °F76%29.82 "Hg
* Reported Jan 29 6:30 AM — Feb 13 6:30 AM, Taiohae, Weather by CustomWeather, © 2016

Note: Actual official high and low records may vary slightly from our data, if they occured in-between our weather recording intervals... More about our weather records

Advertising

Taiohae Weather History for the Previous 24 Hours

 ConditionsComfort  
Time TempWeatherWind HumidityBarometerVisibility
6:30 AM
Sat, Feb 13
78 °FScattered clouds.2 mph86%29.80 "Hg19 mi
5:30 AM78 °FScattered clouds.3 mph86%29.78 "Hg19 mi
4:30 AM78 °FWarm.2 mph86%29.76 "HgN/A
3:30 AM79 °FWarm.2 mph85%29.75 "HgN/A
2:30 AM79 °FWarm.3 mph85%29.74 "HgN/A
1:30 AM78 °FWarm.7 mph90%29.75 "HgN/A
12:30 AM78 °FWarm.3 mph90%29.77 "HgN/A
11:30 PM
Fri, Feb 12
79 °FWarm.3 mph87%29.78 "HgN/A
10:30 PM82 °FWarm.9 mph78%29.79 "HgN/A
9:30 PM81 °FWarm.5 mph81%29.79 "HgN/A
8:30 PM80 °FWarm.2 mph84%29.78 "HgN/A
7:30 PM81 °FWarm.5 mph81%29.76 "HgN/A
6:30 PM84 °FWarm.10 mph75%29.74 "HgN/A
2:30 PM86 °FWarm.15 mph68%29.69 "HgN/A
12:30 PM87 °FPartly sunny.17 mph66%29.72 "Hg19 mi
11:30 AM87 °FOvercast.20 mph67%29.75 "Hg19 mi
10:30 AM87 °FOvercast.21 mph66%29.77 "Hg19 mi
9:30 AM87 °FOvercast.16 mph69%29.79 "Hg19 mi
8:30 AM85 °FOvercast.12 mph70%29.80 "Hg19 mi
Weather by CustomWeather, © 2016

See weather overviewHow to use our weather pages